Retour au catalogue

CZ-6A R/B

ActifPO
NORAD 66958·ROCKET BODY·🇨🇳 China

Lancé Dec 8, 2025 depuis Taiyuan Satellite Launch Center

Loading…

Prochains Passages (prochaines 24 heures)

TLE

FraisSource: Space-Track

Époque: Sep 14, 2026, 00:11 UTC

1 66958U 25287F   26257.00810233  .00000056  00000-0  27682-4 0  9997
2 66958  86.5014 241.4350 0104557 340.6760  19.0461 13.94953301 38917

Suivez CZ-6A R/B en temps réel avec AllMySat

Download on the App Store